Florennes, Belgium

3:47 AM CEST on March 26, 2017 (GMT +0200)
Florennes Air Base

Weather History for EBFS - July, 2013

Change the Weather History Date:

Wednesday, July 24, 2013

  Actual Average Record
Temperature  
Mean Temperature 69 °F -  
Max Temperature 77 °F 67 °F 81 °F (2012)
Min Temperature 61 °F 55 °F 50 °F (2011)
Cooling Degree Days 4    
Growing Degree Days 19 (Base 50)    
Moisture  
Dew Point 62 °F    
Average Humidity 82    
Maximum Humidity 100    
Minimum Humidity 52    
Precipitation  
Precipitation 0.04 in - - ()
Sea Level Pressure  
Sea Level Pressure 29.99 in    
Wind  
Wind Speed 6 mph ()    
Max Wind Speed 23 mph    
Max Gust Speed 36 mph    
Visibility 5.3 miles    
Events Rain , Thunderstorm    
Averages and records for this station are not official NWS values.
T = Trace of Precipitation, MM = Missing Value Source: Averaged Metar Reports

Daily Weather History Graph

Daily Weather History Graph

Search for Another Location

Airport or City:

Trip Planner

Search our weather history database for the weather conditions in past years. The results will help you decide how hot, cold, wet, or windy it might be!

Date:

Astronomy

Jul. 24, 2013 Rise Set
Actual Time 5:58 AM CEST 9:36 PM CEST
Civil Twilight 5:18 AM CEST 10:16 PM CEST
Nautical Twilight 4:23 AM CEST 11:11 PM CEST
Astronomical Twilight 3:02 AM CEST 12:29 AM CEST
Moon 10:09 PM CEST (7/24) 8:19 AM CEST (7/24)
Length of Visible Light 16h 58m
Length of Day
15h 37m
Waning Gibbous, 96% of the Moon is Illuminated
Jul 24
Waning Gibbous
Jul 29
Last Quarter
Aug 6
New
Aug 14
First Quarter
Aug 21
Full

Hourly Weather History & Observations

Time (CEST) Temp. Dew Point Humidity Pressure Visibility Wind Dir Wind Speed Gust Speed Precip Events Conditions
12:25 AM 68.0 °F 64.4 °F 88% 29.95 in 6.2 mi West 5.8 mph - N/A   Mostly Cloudy
12:55 AM 68.0 °F 64.4 °F 88% 29.95 in 6.2 mi West 5.8 mph - N/A   Mostly Cloudy
1:25 AM 68.0 °F 64.4 °F 88% 29.95 in 6.2 mi West 9.2 mph - N/A   Mostly Cloudy
1:55 AM 68.0 °F 62.6 °F 83% 29.95 in 6.2 mi West 4.6 mph - N/A   Mostly Cloudy
2:25 AM 66.2 °F 62.6 °F 88% 29.95 in 5.0 mi West 8.1 mph - N/A   Mostly Cloudy
2:55 AM 66.2 °F 62.6 °F 88% 29.95 in 5.0 mi West 6.9 mph - N/A   Mostly Cloudy
3:25 AM 68.0 °F 62.6 °F 83% 29.98 in 6.2 mi WSW 12.7 mph - N/A   Mostly Cloudy
3:36 AM 68.0 °F 62.6 °F 83% 29.98 in 6.2 mi WSW 15.0 mph - N/A Rain , Thunderstorm Light Thunderstorms and Rain
3:51 AM 64.4 °F 60.8 °F 88% 29.98 in 4.3 mi WSW 20.7 mph 33.4 mph N/A Thunderstorm Light Thunderstorm
3:55 AM 64.4 °F 60.8 °F 88% 29.98 in 4.3 mi West 23.0 mph - N/A Rain , Thunderstorm Light Thunderstorms and Rain
4:25 AM 62.6 °F 59.0 °F 88% 29.98 in 3.7 mi West 16.1 mph - N/A Rain , Thunderstorm Light Thunderstorms and Rain
4:55 AM 60.8 °F 59.0 °F 94% 29.98 in 3.1 mi NW 6.9 mph - N/A Rain , Thunderstorm Light Thunderstorms and Rain
5:00 AM 61 °F 60 °F 93% 29.98 in 3 mi NW 6.7 mph - - Rain , Thunderstorm Thunderstorms and Rain
5:25 AM 62.6 °F 60.8 °F 94% 29.92 in 5.0 mi NNW 8.1 mph - N/A Thunderstorm Light Thunderstorm
5:26 AM 62.6 °F 60.8 °F 94% 29.95 in 5.0 mi NNW 8.1 mph - N/A Thunderstorm Light Thunderstorm
5:55 AM 64.4 °F 60.8 °F 88% 29.95 in 6.2 mi Variable 3.5 mph - N/A   Mostly Cloudy
6:23 AM 62.6 °F 60.8 °F 94% 29.95 in 6.2 mi Variable 2.3 mph - N/A Thunderstorm Thunderstorm
6:25 AM 64.4 °F 60.8 °F 88% 29.95 in 6.2 mi Variable 2.3 mph - N/A   Mostly Cloudy
6:55 AM 62.6 °F 60.8 °F 94% 29.98 in 6.2 mi WSW 6.9 mph - N/A   Mostly Cloudy
7:25 AM 62.6 °F 62.6 °F 100% 29.98 in 4.3 mi West 4.6 mph - N/A   Mostly Cloudy
7:34 AM 62.6 °F 62.6 °F 100% 29.98 in 4.3 mi SW 3.5 mph - N/A   Mostly Cloudy
7:55 AM 62.6 °F 62.6 °F 100% 29.98 in 2.5 mi SW 4.6 mph - N/A   Mostly Cloudy
8:00 AM 63 °F 62 °F 96% 30.00 in 2 mi SW 4.5 mph - -   Mist
8:04 AM 64.4 °F 62.6 °F 94% 30.01 in 2.5 mi SW 3.5 mph - N/A   Mostly Cloudy
8:13 AM 62.6 °F 62.6 °F 100% 30.01 in 1.9 mi SW 4.6 mph - N/A   Mostly Cloudy
8:25 AM 64.4 °F 62.6 °F 94% 30.01 in 1.9 mi SSW 3.5 mph - N/A   Mostly Cloudy
8:55 AM 64.4 °F 62.6 °F 94% 30.01 in 2.2 mi Variable 2.3 mph - N/A   Mostly Cloudy
9:22 AM 66.2 °F 64.4 °F 94% 30.01 in 2.5 mi West 4.6 mph - N/A   Mostly Cloudy
9:25 AM 66.2 °F 64.4 °F 94% 30.01 in 2.5 mi West 3.5 mph - N/A   Mostly Cloudy
9:55 AM 66.2 °F 64.4 °F 94% 30.01 in 2.5 mi WNW 3.5 mph - N/A   Mostly Cloudy
10:22 AM 68.0 °F 64.4 °F 88% 30.01 in 3.1 mi WNW 3.5 mph - N/A   Mostly Cloudy
10:25 AM 68.0 °F 64.4 °F 88% 30.01 in 3.1 mi West 3.5 mph - N/A   Mostly Cloudy
10:55 AM 69.8 °F 62.6 °F 78% 30.01 in 3.7 mi West 4.6 mph - N/A   Mostly Cloudy
11:00 AM 70 °F 63 °F 73% 30.00 in 4 mi West 4.5 mph - -   Scattered Clouds
11:25 AM 69.8 °F 64.4 °F 83% 30.01 in 4.3 mi SW 3.5 mph - N/A   Mostly Cloudy
11:46 AM 68.0 °F 64.4 °F 88% 30.01 in 4.3 mi WSW 9.2 mph - N/A   Mostly Cloudy
11:55 AM 68.0 °F 64.4 °F 88% 30.01 in 3.1 mi WSW 6.9 mph - N/A Rain Light Rain Showers
12:04 PM 68.0 °F 64.4 °F 88% 30.04 in 2.8 mi West 6.9 mph - N/A Rain Light Rain Showers
12:25 PM 68.0 °F 66.2 °F 94% 30.04 in - WSW 10.4 mph - N/A Rain Light Rain Showers
12:35 PM 68.0 °F 64.4 °F 88% 30.04 in 3.7 mi WSW 9.2 mph - N/A   Mostly Cloudy
12:55 PM 68.0 °F 64.4 °F 88% 30.04 in 4.3 mi SSW 5.8 mph - N/A   Mostly Cloudy
1:25 PM 68.0 °F 64.4 °F 88% 30.01 in 3.7 mi South 3.5 mph - N/A Rain Light Rain Showers
1:55 PM 69.8 °F 64.4 °F 83% 30.01 in 4.3 mi West 3.5 mph - N/A   Mostly Cloudy
2:00 PM 69 °F 65 °F 83% 30.02 in 4 mi 4.5 mph - - Rain Light Rain Showers
2:04 PM 69.8 °F 64.4 °F 83% 30.01 in 4.3 mi WSW 4.6 mph - N/A   Mostly Cloudy
2:25 PM 69.8 °F 64.4 °F 83% 30.01 in 5.0 mi SW 5.8 mph - N/A   Mostly Cloudy
2:55 PM 69.8 °F 64.4 °F 83% 30.01 in 6.2 mi Variable 3.5 mph - N/A   Mostly Cloudy
3:25 PM 73.4 °F 64.4 °F 73% 30.01 in 6.2 mi WSW 4.6 mph - N/A   Scattered Clouds
3:55 PM 73.4 °F 64.4 °F 73% 30.01 in 6.2 mi WSW 6.9 mph - N/A   Scattered Clouds
4:25 PM 73.4 °F 62.6 °F 69% 30.01 in 6.2 mi WSW 5.8 mph - N/A   Partly Cloudy
4:53 PM 77.0 °F 64.4 °F 65% 30.01 in 6.2 mi SW 5.8 mph - N/A   Scattered Clouds
4:55 PM 75.2 °F 62.6 °F 65% 29.98 in 6.2 mi WSW 5.8 mph - N/A   Partly Cloudy
5:00 PM 75 °F 63 °F 59% 29.98 in 16 mi WSW 4.5 mph - -   Scattered Clouds
5:25 PM 77.0 °F 64.4 °F 65% 30.01 in 6.2 mi West 6.9 mph 24.2 mph N/A   Partly Cloudy
5:51 PM 75.2 °F 62.6 °F 65% 30.01 in 6.2 mi West 6.9 mph 35.7 mph N/A   Partly Cloudy
5:55 PM 77.0 °F 60.8 °F 57% 29.98 in 6.2 mi West 5.8 mph 24.2 mph N/A   Partly Cloudy
6:25 PM 77.0 °F 60.8 °F 57% 29.98 in 6.2 mi WNW 4.6 mph - N/A   Partly Cloudy
6:55 PM 77.0 °F 59.0 °F 54% 29.98 in 6.2 mi WNW 6.9 mph 25.3 mph N/A   Partly Cloudy
7:25 PM 75.2 °F 59.0 °F 57% 29.98 in 6.2 mi NNW 5.8 mph - N/A   Partly Cloudy
7:55 PM 75.2 °F 60.8 °F 61% 29.98 in 6.2 mi NW 4.6 mph - N/A   Partly Cloudy
8:00 PM 75 °F 61 °F 52% 29.97 in 16 mi NW 4.5 mph - -   Scattered Clouds
8:25 PM 73.4 °F 60.8 °F 65% 30.01 in 6.2 mi NW 3.5 mph - N/A   Partly Cloudy
8:55 PM 73.4 °F 60.8 °F 65% 30.01 in 6.2 mi Variable 3.5 mph - N/A   Partly Cloudy
9:25 PM 71.6 °F 60.8 °F 69% 30.01 in 6.2 mi Variable 2.3 mph - N/A   Partly Cloudy
9:55 PM 69.8 °F 60.8 °F 73% 30.01 in 6.2 mi Variable 1.2 mph - N/A   Partly Cloudy
10:25 PM 68.0 °F 60.8 °F 78% 30.01 in 6.2 mi Variable 1.2 mph - N/A   Partly Cloudy
10:55 PM 66.2 °F 60.8 °F 83% 30.01 in 6.2 mi Variable 2.3 mph - N/A   Partly Cloudy
11:00 PM 67 °F 61 °F 76% 30.02 in 16 mi 2.2 mph - -   Scattered Clouds
11:25 PM 68.0 °F 60.8 °F 78% 30.01 in 6.2 mi Variable 1.2 mph - N/A   Partly Cloudy
11:55 PM 68.0 °F 59.0 °F 73% 30.01 in 6.2 mi Variable 1.2 mph - N/A   Partly Cloudy